FENGYUN 1C DEB

Satellite information

Favourite Embed

Satellite Type and Status

DEBRISIN ORBIT

Key statistics

Satellite FENGYUN 1C DEB at a glance.

Uptime

9555

Days in orbit

Revolutions

≈ 14.6

Per day

Orbit

SSO

Sun Synchronous Orbit

Inclination

100.2

Latest

Satellite identification and parameters

Extended collection of information and parameters for FENGYUN 1C DEB.

Object identification

Identified? True

Debris? True

Object name: FENGYUN 1C DEB

International designator: 1999-025ELY

Object number (NORAD): 37707

Object ID (CCSDS): 37707

Country: PEOPLES REPUBLIC OF CHINA (PRC)

Current information (Y/N): Y

RCS size: SMALL

Orbital parameters

Period: 98.956 minutes

Inclination: 100.2081 deg

SMA: 7086.901 km

Apoapsis: 812.583 km

Periapsis: 604.949 km

RAAN: 152.0435 deg

Eccentricy: 0.0146492

Argument of periapsis: 138.1591 deg

Mean anomaly: 234.4583 deg

Mean motion: 14.55185028 rev/day

Mean motion (dot): 0.00001575 rev/day2

B* drag term: 0.00033015 1/REarth

Two-line elements (TLE)

Creation date: July 3, 2025, 5:26 p.m.

Reference frame: TEME

Reference center: EARTH

Epoch: July 3, 2025, 4:41 a.m. UTC

TLE line 0: 0 FENGYUN 1C DEB

TLE line 1: 1 37707U 99025ELY 25184.19550787 .00001575 00000-0 33015-3 0 9994

TLE line 2: 2 37707 100.2081 152.0435 0146492 138.1591 234.4583 14.55185028832014

Live tracking on map

Real-time ground track for satellite FENGYUN 1C DEB.

In-orbit conjunctions

A list of the most updated potential collisions computed for object FENGYUN 1C DEB.

Target Orbit TCA Probability of collision Miss distance Type
THORAD AGENA D DEB LEO 2024-11-12 23:59:32 0.0001104682 764.0 (m) DEBRIS
FENGYUN 1C DEB SSO 2024-06-15 11:31:43 0.0002891886 108.0 (m) DEBRIS

Associated space launch

Chinese polar orbiting meteorological satellite

FENGYUN 1C DEB was lifted into orbit during the mission ‘Long March 4B | Feng Yun 1C’, on board a Long March 4B space rocket.

The launch took place on May 10, 1999, 1:33 a.m. from Launch Complex 7.

For more information about the launch, click the button.

Launch to space Long March 4B | Feng Yun 1C
Long March 4B | Feng Yun 1C

Agency: N/A

Status: Launch Successful

Launch date: May 10, 1999, 1:33 a.m. UTC

Rocket: Long March 4B

Launch pad: Launch Complex 7

Location: Taiyuan Satellite Launch Center, People's Republic of China

...

Latest news about this satellite

There are no fresh news available about this satellite. Check back as we update our databases every day.


Newsletter sign-up

Weekly statistics, charts and insights to help you stay on top of the space industry.